Wind_Speed
12 12 12 11 11 10 10 9 9 8 7 7 7 7 7 7 7 7 6 6 5 5 5 5 5 4 4 4 4 3 3 3 3 2 2 2 2 2 2 1 1 2 3
13 13 13 13 12 12 11 10 10 10 9 9 9 9 9 9 9 9 8 8 7 7 7 6 6 6 5 5 6 5 5 5 5 4 4 4 4 4 4 3 2 3 4
14 14 14 14 14 13 13 12 12 12 11 11 11 11 11 10 10 10 10 9 9 8 8 8 8 8 7 7 7 7 7 7 6 6 5 6 5 5 5 5 4 4 5
16 16 16 16 15 15 14 14 13 13 13 12 12 12 12 12 12 11 11 11 10 10 10 10 10 10 9 8 8 8 8 8 8 7 7 7 7 7 7 7 6 6 6
17 17 17 16 16 16 15 15 15 15 15 14 13 13 13 13 13 13 13 13 12 12 12 12 12 11 11 10 9 9 9 9 9 9 8 8 9 9 9 9 9 8 8
18 18 18 18 18 17 16 16 16 16 16 16 15 15 15 14 14 14 15 14 14 14 14 13 13 13 12 12 11 11 11 11 11 11 10 10 10 11 10 10 11 11 11
20 20 19 19 19 19 18 18 18 18 18 18 17 17 17 16 16 16 16 16 16 16 15 15 15 15 15 15 14 14 13 13 13 12 12 12 12 12 12 12 12 12 12
21 21 21 21 20 21 20 20 20 19 19 19 19 18 18 18 18 17 17 17 17 17 17 17 17 17 17 17 17 16 16 15 15 14 14 14 14 14 14 14 14 14 13
23 22 22 22 22 22 22 21 21 21 20 20 20 20 19 19 19 19 19 19 19 19 19 18 18 19 19 18 18 18 18 17 16 16 16 16 16 16 16 16 16 16 16
24 23 23 23 23 24 23 23 23 22 22 22 21 21 21 21 21 21 21 21 21 20 20 20 20 20 20 20 20 20 20 19 19 18 18 18 18 18 18 18 18 18 19
25 24 24 24 24 24 24 24 24 24 24 23 23 23 22 22 22 22 22 22 22 22 22 22 22 21 21 21 21 21 21 21 21 21 21 20 20 20 20 20 20 21 21
26 25 25 25 25 25 25 24 24 24 24 24 25 24 24 24 24 24 24 23 23 24 23 23 23 23 23 23 23 23 23 23 23 23 23 22 22 22 22 22 22 23 23
27 26 26 26 26 26 26 25 25 26 26 26 26 26 26 26 26 26 26 26 25 25 25 25 24 25 25 25 25 25 25 25 25 25 25 25 24 24 24 24 24 24 24
28 28 28 27 27 26 27 27 27 27 28 28 27 27 27 27 27 27 27 27 27 27 27 26 27 27 27 27 27 27 27 28 28 27 27 27 27 26 26 26 26 26 26
29 29 29 29 29 28 28 28 29 29 29 29 29 28 29 29 29 29 29 29 29 28 28 29 29 29 30 30 29 29 29 29 29 29 29 29 28 28 28 28 28 28 28
31 31 30 30 30 30 30 30 30 31 31 30 30 30 30 30 30 30 30 30 30 30 31 31 32 32 31 31 31 31 30 30 30 30 30 30 30 30 30 30 30 29 29
33 32 32 31 31 31 31 32 32 32 32 32 31 31 32 32 32 32 31 31 31 32 32 33 33 32 32 32 32 32 31 32 31 31 31 31 31 31 31 30 31 31 30
34 34 33 33 34 33 33 33 33 33 33 33 34 33 33 32 32 32 33 32 32 33 34 34 34 34 33 33 33 32 32 32 32 33 33 32 32 33 32 32 32 32 32
35 35 35 35 35 35 35 35 35 35 35 35 35 34 33 33 33 33 34 34 34 34 35 35 35 35 34 34 34 34 33 33 33 34 34 34 34 34 34 34 34 34 34
37 37 36 36 36 37 37 37 36 36 36 35 35 35 35 34 34 34 35 35 34 35 35 35 35 35 35 35 35 35 34 34 34 35 36 35 35 35 36 36 36 35 35
38 38 38 38 38 38 38 37 37 37 36 36 36 36 37 37 37 36 36 36 35 35 34 34 35 36 36 36 36 36 36 35 35 35 37 37 36 36 36 37 37 37 37
38 38 38 39 39 39 38 38 38 38 37 37 37 37 37 38 38 37 37 36 36 36 36 36 36 36 37 37 37 37 36 36 36 36 36 37 37 37 37 38 38 38 38
38 38 38 38 39 40 40 39 39 40 40 40 39 39 39 39 39 39 38 38 39 38 38 38 37 37 38 39 39 39 38 36 37 37 37 37 37 38 39 39 40 39 39
38 38 39 39 39 40 41 42 42 42 41 41 41 41 41 41 41 41 41 40 40 40 40 39 39 39 40 40 41 40 40 38 38 37 38 38 39 39 40 40 41 41 41
38 38 39 40 40 41 42 43 43 43 43 43 43 43 43 43 43 43 43 42 42 42 41 41 41 41 41 41 42 42 42 41 40 39 39 39 40 41 41 41 41 42 42
37 38 39 39 40 41 42 44 45 46 46 45 44 45 45 44 44 44 44 43 42 42 42 42 42 42 41 41 42 43 43 42 41 41 40 40 40 41 41 41 42 42 43
Wind_Direction
246 243 239 239 241 244 246 248 249 246 243 240 238 236 237 238 239 240 238 240 241 238 233 233 237 237 241 244 245 252 254 261 264 257 253 254 261 270 280 274 252 235 234
245 244 240 238 238 241 244 246 246 245 244 243 242 239 240 242 245 248 246 245 245 245 241 238 242 243 247 250 252 256 256 258 259 261 265 270 273 274 276 272 258 243 242
245 244 242 241 239 239 241 243 244 244 244 243 242 241 242 244 246 248 248 249 249 250 250 249 247 248 252 254 257 257 257 257 257 259 264 271 274 278 276 270 261 256 253
246 244 243 242 242 241 242 243 243 244 245 245 245 244 244 246 247 247 247 248 250 252 253 253 253 254 257 258 259 259 258 256 255 260 265 268 269 274 276 275 270 264 258
246 244 245 244 243 243 243 243 243 244 245 246 247 247 246 248 249 248 248 250 253 255 255 256 255 256 258 258 260 261 261 259 257 260 265 268 269 270 272 275 274 266 267
247 245 245 244 243 244 245 245 246 245 246 246 247 247 247 248 251 252 252 252 254 256 257 257 256 256 257 257 260 262 263 262 260 260 264 266 269 270 270 275 272 268 267
247 245 245 245 244 244 246 247 247 247 247 247 248 249 250 251 252 253 255 256 256 257 258 258 258 257 258 258 259 260 261 262 261 261 263 265 267 269 270 272 271 269 267
245 244 245 245 245 245 245 247 247 247 248 249 249 251 252 253 254 255 256 258 260 261 262 261 261 261 262 261 261 260 259 260 261 262 263 265 267 268 268 270 270 270 269
244 243 245 246 246 247 246 246 246 247 247 249 250 251 253 255 256 256 257 259 261 262 263 264 264 263 263 262 262 261 260 260 261 262 264 265 267 269 268 269 270 271 270
243 242 244 245 246 247 246 246 247 247 248 249 251 253 255 257 258 258 258 259 261 262 263 265 265 264 263 263 262 262 261 261 262 263 265 266 267 268 268 268 270 271 270
244 244 244 245 245 245 246 246 247 248 249 250 252 255 257 258 259 260 261 262 263 264 264 264 265 264 263 263 264 263 262 262 262 263 265 266 267 268 268 268 270 270 270
245 245 245 246 246 245 246 247 248 249 249 251 254 256 257 259 259 260 262 263 264 265 263 264 264 264 263 263 264 264 262 262 262 264 264 265 266 268 268 269 270 271 271
245 245 246 247 248 247 247 248 248 250 251 252 255 257 257 259 260 261 262 263 264 265 265 264 263 263 263 263 264 265 263 262 263 264 264 265 266 268 268 268 269 270 271
245 245 246 247 248 248 248 249 250 252 253 254 255 257 258 259 261 262 263 264 264 264 264 264 264 263 263 263 264 264 264 262 262 264 265 266 267 267 268 269 269 269 270
245 246 246 247 248 248 249 250 252 253 254 255 256 257 259 259 261 262 263 264 264 264 264 264 264 264 264 264 264 265 264 263 262 263 265 265 265 267 268 269 270 270 271
246 246 247 248 249 250 250 251 252 253 255 256 258 258 259 260 261 262 263 263 264 265 265 265 265 265 265 264 264 263 263 262 262 263 264 265 265 266 268 269 270 271 271
247 247 247 249 250 250 251 251 252 253 254 255 257 259 260 261 262 263 264 264 264 265 266 266 266 265 265 264 264 263 263 263 262 263 264 265 265 267 268 269 269 270 270
247 248 248 250 251 251 251 252 252 253 255 256 257 259 260 262 263 263 263 264 265 266 267 266 265 265 263 263 263 263 263 263 264 265 265 265 266 266 267 269 270 270 271
248 248 249 250 251 252 252 252 253 254 255 256 256 258 260 261 263 265 265 265 266 267 267 265 264 263 263 262 262 262 263 263 264 265 266 266 266 266 267 268 269 270 271
249 250 249 250 251 253 253 253 253 254 255 255 256 258 260 262 264 265 266 266 266 267 266 266 264 263 262 261 261 262 263 264 264 265 266 265 266 267 267 268 269 270 271
249 250 250 250 251 252 253 253 253 254 255 256 258 260 262 264 266 266 266 265 265 266 266 266 265 263 262 261 261 262 262 262 264 265 265 265 266 266 267 268 269 270 271
250 251 252 252 252 252 252 253 254 254 255 257 259 260 263 265 265 266 265 265 265 265 265 265 265 264 263 262 262 262 261 261 263 264 265 265 266 266 266 269 270 271 272
251 251 252 252 252 252 252 253 255 255 257 258 260 261 263 264 265 265 265 265 265 263 263 264 264 264 264 263 262 262 261 262 264 265 265 266 266 266 267 269 271 272 273
251 252 252 252 252 252 252 253 254 256 257 258 260 262 263 264 265 265 264 264 264 263 263 263 263 264 264 263 263 263 262 263 264 264 265 267 267 267 267 269 272 273 274
252 253 253 253 253 254 254 254 255 257 258 259 260 262 263 264 265 265 264 263 263 263 264 264 264 264 264 263 263 263 264 263 264 266 267 268 269 270 270 270 271 273 274
254 254 254 255 256 256 256 256 257 257 259 260 261 262 263 264 266 265 265 264 264 263 264 264 264 264 263 263 263 263 263 263 265 267 268 269 270 271 272 271 272 274 275
Height
5849 5850 5851 5852 5852 5853 5853 5854 5854 5855 5855 5856 5856 5857 5858 5859 5859 5860 5860 5860 5861 5861 5861 5862 5862 5862 5862 5862 5862 5862 5862 5862 5862 5862 5862 5861 5861 5861 5860 5858 5858 5858 5859
5847 5848 5849 5849 5850 5851 5852 5853 5853 5854 5854 5855 5856 5856 5857 5858 5858 5859 5859 5859 5860 5860 5861 5861 5861 5862 5862 5862 5862 5862 5862 5862 5861 5861 5861 5861 5861 5860 5860 5859 5859 5858 5859
5844 5845 5846 5847 5848 5849 5850 5851 5852 5852 5853 5854 5855 5855 5856 5856 5857 5858 5858 5858 5859 5859 5859 5860 5860 5861 5861 5861 5861 5861 5861 5861 5861 5861 5860 5860 5860 5860 5859 5859 5859 5858 5858
5841 5842 5843 5844 5845 5846 5847 5849 5850 5851 5851 5852 5853 5854 5854 5855 5855 5856 5856 5857 5857 5858 5858 5858 5859 5859 5859 5860 5860 5860 5860 5860 5860 5860 5859 5859 5859 5859 5859 5859 5858 5858 5858
5838 5839 5840 5842 5843 5844 5845 5846 5847 5848 5849 5850 5851 5852 5852 5853 5854 5854 5854 5855 5856 5856 5856 5857 5857 5857 5858 5858 5858 5858 5858 5858 5858 5858 5858 5858 5858 5858 5857 5857 5857 5856 5856
5835 5836 5837 5838 5840 5841 5842 5843 5844 5846 5847 5848 5848 5849 5850 5851 5851 5852 5852 5853 5853 5854 5854 5854 5855 5855 5856 5856 5856 5856 5856 5856 5856 5856 5856 5856 5856 5856 5856 5855 5855 5855 5855
5831 5832 5834 5835 5836 5838 5839 5840 5841 5842 5844 5845 5845 5846 5847 5848 5848 5849 5849 5850 5851 5851 5851 5852 5852 5853 5853 5853 5854 5854 5854 5854 5854 5854 5854 5854 5854 5854 5854 5853 5853 5853 5853
5827 5828 5829 5831 5832 5834 5835 5836 5838 5839 5840 5841 5842 5843 5844 5844 5845 5846 5846 5847 5847 5848 5848 5849 5849 5849 5850 5850 5850 5851 5851 5851 5852 5852 5852 5851 5851 5851 5851 5851 5850 5850 5850
5822 5823 5825 5826 5828 5829 5831 5832 5834 5835 5836 5837 5838 5839 5840 5841 5841 5842 5842 5843 5843 5844 5844 5845 5845 5845 5846 5846 5846 5847 5847 5848 5848 5849 5849 5848 5848 5848 5848 5848 5847 5847 5847
5817 5818 5820 5821 5823 5825 5826 5828 5830 5831 5832 5833 5834 5835 5836 5837 5837 5838 5838 5839 5839 5840 5840 5840 5841 5841 5841 5842 5842 5842 5843 5844 5844 5845 5845 5845 5845 5844 5844 5844 5844 5844 5843
5812 5813 5815 5816 5818 5820 5822 5823 5825 5826 5828 5829 5830 5831 5832 5832 5833 5833 5834 5834 5835 5835 5835 5835 5836 5836 5836 5837 5837 5838 5839 5840 5840 5841 5841 5841 5841 5840 5840 5840 5840 5840 5839
5806 5808 5810 5812 5813 5815 5817 5818 5820 5821 5823 5824 5825 5826 5827 5827 5828 5828 5829 5829 5829 5829 5829 5830 5830 5831 5832 5832 5833 5833 5834 5835 5835 5836 5836 5836 5836 5836 5836 5836 5835 5835 5835
5801 5803 5805 5807 5808 5810 5812 5813 5815 5816 5817 5819 5820 5821 5821 5822 5822 5823 5823 5824 5824 5824 5824 5824 5825 5825 5826 5827 5827 5828 5828 5829 5830 5830 5831 5831 5831 5831 5831 5831 5830 5830 5830
5795 5797 5799 5801 5803 5804 5806 5808 5809 5810 5812 5813 5814 5815 5816 5816 5817 5817 5817 5817 5817 5818 5818 5818 5819 5819 5820 5821 5821 5822 5822 5823 5824 5824 5825 5825 5825 5825 5825 5825 5825 5825 5824
5789 5791 5793 5795 5796 5798 5800 5801 5803 5804 5805 5807 5808 5809 5810 5810 5810 5810 5811 5811 5811 5811 5811 5811 5812 5812 5813 5814 5815 5815 5816 5817 5817 5818 5818 5819 5819 5819 5819 5819 5819 5818 5818
5782 5784 5786 5788 5790 5791 5793 5795 5796 5797 5799 5800 5801 5802 5803 5803 5803 5803 5803 5803 5804 5803 5804 5804 5804 5805 5806 5807 5807 5808 5809 5810 5811 5811 5812 5812 5812 5813 5813 5812 5812 5812 5811
5774 5777 5779 5781 5782 5784 5786 5787 5789 5790 5791 5792 5794 5794 5795 5795 5796 5796 5796 5796 5796 5796 5796 5796 5796 5797 5798 5799 5800 5801 5802 5803 5804 5804 5805 5805 5805 5806 5806 5805 5805 5805 5804
5766 5769 5771 5773 5775 5776 5778 5780 5781 5783 5784 5785 5786 5787 5787 5788 5788 5788 5788 5788 5788 5788 5788 5788 5788 5789 5790 5791 5792 5793 5794 5795 5796 5797 5797 5797 5798 5798 5798 5798 5798 5798 5797
5758 5760 5763 5765 5767 5768 5770 5772 5773 5775 5776 5777 5778 5779 5779 5780 5780 5780 5780 5780 5779 5779 5779 5780 5780 5781 5783 5784 5785 5786 5787 5788 5788 5789 5789 5790 5790 5790 5790 5790 5790 5790 5789
5749 5751 5754 5756 5758 5759 5761 5763 5764 5766 5768 5769 5770 5770 5771 5771 5771 5771 5771 5771 5771 5771 5771 5771 5772 5773 5774 5775 5776 5777 5778 5780 5780 5781 5781 5781 5782 5782 5782 5782 5782 5781 5781
5739 5742 5744 5747 5748 5750 5752 5754 5755 5757 5759 5760 5761 5761 5762 5762 5762 5762 5762 5762 5762 5762 5762 5763 5764 5765 5766 5767 5768 5769 5770 5771 5772 5772 5772 5773 5773 5773 5773 5773 5773 5773 5772
5730 5732 5734 5737 5739 5740 5743 5744 5746 5747 5749 5751 5751 5752 5752 5753 5752 5752 5752 5752 5753 5753 5754 5754 5755 5756 5757 5758 5760 5760 5761 5763 5763 5763 5763 5763 5764 5764 5764 5764 5764 5763 5763
5721 5723 5725 5727 5728 5730 5732 5734 5736 5737 5739 5741 5742 5742 5743 5743 5743 5742 5743 5743 5743 5744 5745 5745 5746 5748 5748 5749 5750 5752 5753 5754 5754 5755 5755 5755 5755 5755 5755 5755 5755 5754 5753
5712 5713 5715 5717 5718 5720 5722 5724 5726 5727 5729 5731 5732 5732 5732 5733 5732 5732 5732 5733 5733 5734 5735 5736 5737 5738 5739 5740 5741 5742 5743 5744 5745 5746 5746 5746 5746 5746 5746 5745 5745 5744 5743
5702 5704 5705 5707 5708 5710 5711 5713 5714 5716 5718 5719 5721 5722 5722 5722 5722 5721 5722 5722 5723 5724 5725 5726 5727 5728 5729 5730 5731 5732 5732 5733 5734 5736 5737 5737 5736 5736 5735 5735 5734 5734 5733
5693 5694 5695 5696 5698 5699 5700 5701 5703 5705 5706 5708 5709 5710 5711 5711 5711 5711 5711 5712 5713 5713 5714 5715 5716 5717 5718 5719 5721 5721 5722 5723 5724 5725 5726 5727 5727 5726 5725 5724 5724 5723 5722